User: anonymous   Login
Location: Hopkins Observatory
(42.6965°N, 73.1843°W)
Time: 14:34:40
(UTC-04:00)
Language:

UOSAT-12 - Orbit

View from above orbital plane
View from above orbital plane
View from above satellite
View from above satellite

Ground track
Ground track

The orbit data is extracted from the following two-line orbital elements,

1 25693U 99021A   16274.16454829  .00000048  00000-0  24701-4 0  9995
2 25693  64.5561 207.0346 0007999 323.5637  36.4922 14.80682368941667
Epoch (UTC): 30 September 2016 03:56:56
Eccentricity: 0.0007999
inclination: 64.5561°
perigee height: 621 km
apogee height: 633 km
right ascension of ascending node: 207.0346°
argument of perigee: 323.5637°
revolutions per day: 14.80682368
mean anomaly at epoch: 36.4922°
orbit number at epoch: 94166

The dashed part of the orbit path shows where the satellite is in the earth's shadow,  

DLR